Weather History for Taunton, MA

Change the Weather History Date:

Sunday, June 9, 2013

  Actual Average Record
Temperature  
Mean Temperature 66 °F -  
Max Temperature 82 °F 78 °F 97 °F (2008)
Min Temperature 53 °F 53 °F 37 °F (1949)
Cooling Degree Days 2    
Growing Degree Days 16 (Base 50)    
Moisture  
Dew Point 54 °F    
Average Humidity 76    
Maximum Humidity 97    
Minimum Humidity 38    
Precipitation  
Precipitation 0.00 in - - ()
Sea Level Pressure  
Sea Level Pressure 30.08 in    
Wind  
Wind Speed 2 mph (West)    
Max Wind Speed 9 mph    
Max Gust Speed 18 mph    
Visibility 6 miles    
Events Fog    
Averages and records for this station are not official NWS values.
T = Trace of Precipitation, MM = Missing Value Source: NWS Daily Summary

Daily Weather History Graph

Daily Weather History Graph

Search for Another Location

Airport:

Trip Planner

Search our weather history database for the weather conditions in past years. The results will help you decide how hot, cold, wet, or windy it might be!

Date:

Astronomy

Jun. 09, 2013 Rise Set
Actual Time 5:08 AM EDT 8:18 PM EDT
Civil Twilight 4:34 AM EDT 8:52 PM EDT
Nautical Twilight 3:51 AM EDT 9:36 PM EDT
Astronomical Twilight 2:58 AM EDT 10:28 PM EDT
Moon 6:03 AM EDT (6/9) 9:01 PM EDT (6/9)
Length of Visible Light 16h 17m
Length of Day
15h 09m
New Moon, 1% of the Moon is Illuminated
Jun 9
New Moon
Jun 16
First Quarter
Jun 23
Full
Jun 30
Last Quarter
Jul 8
New

Hourly Weather History & Observations

Time (EDT) Temp. Dew Point Humidity Pressure Visibility Wind Dir Wind Speed Gust Speed Precip Events Conditions
12:04 AM 60.1 °F 59.0 °F 96% 30.01 in 3.0 mi Calm Calm - N/A   Partly Cloudy
12:52 AM 61.0 °F 59.0 °F 93% 30.02 in 10.0 mi West 3.5 mph - N/A   Partly Cloudy
1:52 AM 59.0 °F 57.0 °F 93% 30.04 in 9.0 mi Calm Calm - N/A   Partly Cloudy
2:52 AM 57.0 °F 55.0 °F 93% 30.04 in 7.0 mi Calm Calm - N/A   Clear
3:04 AM 57.0 °F 55.0 °F 93% 30.04 in 1.8 mi Calm Calm - N/A   Clear
3:13 AM 55.9 °F 54.0 °F 93% 30.04 in 3.0 mi Calm Calm - N/A   Clear
3:17 AM 55.9 °F 54.0 °F 93% 30.04 in 1.8 mi Calm Calm - N/A   Clear
3:25 AM 55.9 °F 54.0 °F 93% 30.04 in 1.0 mi Calm Calm - N/A   Clear
3:37 AM 55.0 °F 54.0 °F 96% 30.04 in 0.5 mi Calm Calm - N/A Fog Fog
3:49 AM 55.4 °F 53.6 °F 94% 30.05 in 1.8 mi Calm Calm - N/A   Clear
3:52 AM 55.0 °F 54.0 °F 96% 30.05 in 5.0 mi Calm Calm - N/A   Clear
4:07 AM 55.0 °F 53.1 °F 93% 30.06 in 1.8 mi Calm Calm - N/A   Clear
4:14 AM 54.0 °F 53.1 °F 97% 30.06 in 0.8 mi Calm Calm - N/A   Clear
4:33 AM 54.0 °F 52.0 °F 93% 30.06 in 1.5 mi Calm Calm - N/A   Clear
4:44 AM 54.0 °F 52.0 °F 93% 30.06 in 1.2 mi Calm Calm - N/A   Clear
4:52 AM 54.0 °F 52.0 °F 93% 30.07 in 1.0 mi Calm Calm - N/A   Clear
5:00 AM 54.0 °F 53.1 °F 97% 30.07 in 0.5 mi Calm Calm - N/A Fog Fog
5:30 AM 53.1 °F 51.1 °F 93% 30.07 in 1.0 mi Calm Calm - N/A   Clear
5:35 AM 53.1 °F 52.0 °F 96% 30.07 in 2.0 mi Calm Calm - N/A   Clear
5:43 AM 55.0 °F 54.0 °F 96% 30.07 in 7.0 mi Calm Calm - N/A   Clear
5:52 AM 54.0 °F 53.1 °F 97% 30.08 in 8.0 mi Calm Calm - N/A   Clear
6:52 AM 62.1 °F 57.9 °F 86% 30.10 in 10.0 mi SW 3.5 mph - N/A   Clear
7:52 AM 66.0 °F 55.9 °F 70% 30.11 in 10.0 mi West 4.6 mph - N/A   Clear
8:52 AM 71.1 °F 54.0 °F 55% 30.11 in 10.0 mi West 9.2 mph 16.1 mph N/A   Clear
9:52 AM 72.0 °F 54.0 °F 53% 30.12 in 10.0 mi WNW 8.1 mph 17.3 mph N/A   Clear
10:52 AM 75.0 °F 53.1 °F 46% 30.12 in 10.0 mi WNW 9.2 mph 18.4 mph N/A   Clear
11:52 AM 75.9 °F 52.0 °F 43% 30.11 in 10.0 mi West 9.2 mph 17.3 mph N/A   Clear
12:52 PM 78.1 °F 52.0 °F 40% 30.10 in 10.0 mi Variable 4.6 mph - N/A   Partly Cloudy
1:52 PM 80.1 °F 52.0 °F 38% 30.09 in 10.0 mi Variable 4.6 mph - N/A   Partly Cloudy
2:52 PM 80.1 °F 52.0 °F 38% 30.08 in 10.0 mi NW 4.6 mph - N/A   Overcast
3:52 PM 79.0 °F 52.0 °F 39% 30.08 in 10.0 mi Variable 5.8 mph - N/A   Partly Cloudy
4:52 PM 79.0 °F 52.0 °F 39% 30.08 in 10.0 mi West 6.9 mph - N/A   Partly Cloudy
5:52 PM 79.0 °F 52.0 °F 39% 30.08 in 10.0 mi WNW 9.2 mph - N/A   Mostly Cloudy
6:52 PM 79.0 °F 54.0 °F 42% 30.09 in 10.0 mi West 4.6 mph - N/A   Partly Cloudy
7:52 PM 73.0 °F 57.9 °F 59% 30.11 in 10.0 mi SW 5.8 mph - N/A   Clear
8:52 PM 70.0 °F 57.9 °F 65% 30.12 in 10.0 mi SSW 6.9 mph - N/A   Clear
9:52 PM 66.9 °F 57.9 °F 73% 30.14 in 10.0 mi SW 4.6 mph - N/A   Clear
10:52 PM 64.9 °F 57.9 °F 78% 30.16 in 10.0 mi West 4.6 mph - N/A   Clear
11:52 PM 60.1 °F 57.0 °F 90% 30.16 in 8.0 mi Calm Calm - N/A   Clear